{"data":{"norad_id":68724,"intl_designator":"2026-081AB","name":"STARLINK-37274","alt_names":[],"object_type":"PAYLOAD","status":"ACTIVE","operator":null,"country":"US","launch_date":"2026-04-14","launch_site_code":"AFETR","launch_vehicle":null,"mission":null,"orbit_class":"UNKNOWN","rcs_meters":null,"size_class":null,"mass_kg":null,"dimensions":null,"purposes":["comms"],"wikipedia_slug":null,"has_3d_model":false,"image_url":null,"decayed_at":null,"tle_current":{"epoch":"2026-09-20T02:55:01.291008Z","epoch_age_seconds":74104,"freshness":"FRESH","line1":"1 68724U 26081AB  26263.12154272  .00011822  00000+0  36041-3 0  9997","line2":"2 68724  53.1574 207.2466 0001272  87.1829 272.9319 15.34404095 24563","mean_motion":15.34404095,"eccentricity":0.0001272,"inclination_deg":53.1574,"raan_deg":207.2466,"arg_perigee_deg":87.1829,"mean_anomaly_deg":272.9319,"bstar":0.00036041,"rev_number":2456,"period_min":93.847507621517,"perigee_km":461.82091570081,"apogee_km":463.56122236157,"semimajor_km":6840.8280690312,"source":"CELESTRAK","updated_at":"2026-09-20T09:00:43.987953Z"}}}